Other Surface Observations
Issued by NWS

Home | Current Version | Previous Version | Text Only | Print | Product List | Glossary On
Versions: 1 2 3 4 5 6 7 8 9 10 11 12 13 14 15 16 17 18 19 20 21 22 23 24 25 26 27 28 29 30 31 32 33 34 35 36 37 38 39 40 41 42 43 44 45 46 47 48 49 50
000
SXUS52 KTAE 281418
OSOTAE
OSOTAE
North Florida/South Alabama/Southwest Georgia Weather Roundup
National Weather Service Tallahassee Florida
1000 AM EDT SAT MAR 28 2015

Note: "fair" indicates few or no clouds below 12,000 feet with no
significant weather and/or obstructions to visibility.

!FLZ017-115-028-034-025-281500
...North Florida...

CITY           SKY/WX    TMP DP  RH WIND       PRES   REMARKS
TALLAHASSEE    SUNNY     51  33  50 NW13      30.20R
APALACHICOLA   SUNNY     54  37  52 N10       30.22R
PERRY          SUNNY     51  37  58 NW10      30.20S
CROSS CITY       N/A     54  36  50 N10       30.18F
JACKSONVILLE   MOSUNNY   52  37  56 W13       30.15R
$$

!FLZ112-006-005-002-011-281500
...Florida Panhandle...

CITY           SKY/WX    TMP DP  RH WIND       PRES   REMARKS
MARIANNA       SUNNY     47  38  71 W8        30.23R WCI  43
BONIFAY        FAIR      47  37  68 VRB5      30.25R WCI  45
PANAMA CITY NW FAIR      49  39  68 NW9       30.24R WCI  45
TYNDALL AFB    SUNNY     51  37  59 N8        30.23R
TYND DRONE APT FAIR      51  40  66 N10       30.23R
DE FUNIAK SPR  NOT AVBL
EGLIN AFB      MOSUNNY   49  35  58 N10       30.24R WCI  45
DESTIN         SUNNY     50  38  63 N8        30.25R
HURLBURT       SUNNY     49  34  56 N7        30.24R
CRESTVIEW      SUNNY     48  34  58 NW9       30.26R WCI  44
PENSACOLA      SUNNY     49  37  63 N9        30.25R WCI  45
$$

!ALZ063-066-281500
...South Alabama...

CITY           SKY/WX    TMP DP  RH WIND       PRES   REMARKS
DOTHAN         SUNNY     45  36  70 NW9       30.25R WCI  40
OZARK CAIRNS   SUNNY     46  30  54 W8        30.22R WCI  42
FT RUCKER HELI SUNNY     46  33  60 NW8       30.21R WCI  42
RUCKER HELI 3  FAIR      45  30  57 NW8G16    30.23R WCI  40
RUCKER HELI 2  FAIR      46  31  55 NW10      30.22R WCI  41
FLORALA APT    SUNNY     46  33  60 VRB3      30.25R
ANDALUSIA      SUNNY     49  30  48 N9        30.23S WCI  45
TROY           MOSUNNY   44  35  70 N12       30.22R WCI  38
EUFALA         FAIR      47  33  58 VRB5      30.20R WCI  45
MOBILE         MOSUNNY   48  37  65 N7        30.26R WCI  45
$$

!GAZ120>161-281500
...Southwest and South Central Georgia...

CITY           SKY/WX    TMP DP  RH WIND       PRES   REMARKS
THOMASVILLE    FAIR      46  36  66 NW5       30.20S WCI  44
BAINBRIDGE     SUNNY     50  39  66 NW7       30.23R
MOODY AFB      SUNNY     48  36  63 NW9       30.17R WCI  43
VALDOSTA       SUNNY     49  38  65 VRB6      30.19R
MOULTRIE       SUNNY     45  36  70 W8        30.20R WCI  40
BLAKELY        SUNNY     48  37  66 N9        30.22R WCI  44
ALBANY         SUNNY     47  34  60 NW12      30.22R WCI  42
TIFTON         FAIR      46  32  60 NW10      30.17R WCI  40
FITZGERALD     FAIR      48  32  52 NW12      30.19R WCI  43
CORDELE        FAIR      45  33  63 NW8       30.19R WCI  41
AMERICUS       FAIR      43  32  65 N10       30.20R WCI  37
HOMERVILLE     FAIR      50  39  66 NW9       30.17R
$$

!GMZ750-755-770-775-281500
...Coastal and Buoy Obs...

STATION/POSITION TIME  TEMP    WIND        PRES    VSBY  WAVE
                       AIR SEA DIR/SP/G                  HT/PER
                 (UTC) (F)     (DEG/KT/KT) (MB)    (MI)  (FT/S)
KEATON BEACH     1400   52     320/  2/  5 1022.3R
CEDAR KEY        1400   54     360/  7/ 10 1022.4R
C TOWER          1400   51     350/ 16/ 19 1022.3R
APALACHICOLA BUO 1350   59 68  340/ 14/ 17 1022.6R         6/ 6
PANAMA CITY BUOY 1350   60 74  340/ 16/ 19 1023.1R         5/ 6
MOBILE BUOY      1350   57 71   40/ 10/ 16 1024.0R         3/ 5
ORANGE BCH AL BU 1350   52 66   30/ 10/ 12 1023.6R         2/ 3
$$



USA.gov is the U.S. government's official web portal to all federal, state and local government web resources and services.